Wind_Speed
15 17 17 3 13 19 18 20 22 13 8 11 11 10 4 3 4 5 6 7 7 3 7 11 15 16 15 15 17 15 14 13 11 11 10 9 7 7 6 6 5 9 11 10
11 15 2 15 14 12 12 3 7 3 8 11 11 12 12 12 11 7 9 12 6 9 10 12 13 14 16 15 15 16 14 11 8 10 11 11 12 10 10 8 7 10 12 12
12 6 10 15 4 1 6 4 5 1 12 16 12 14 11 21 15 12 9 13 14 13 14 11 12 10 9 12 9 10 11 9 7 5 10 12 14 14 12 9 9 9 12 14
10 2 8 5 2 7 6 8 8 4 4 7 15 7 12 13 17 16 13 11 9 8 11 15 13 11 5 2 4 6 7 6 7 9 10 10 13 14 12 12 13 14 13 16
4 7 9 9 6 9 8 11 14 14 14 9 21 7 12 16 19 7 8 7 3 3 10 14 12 11 9 7 1 2 5 6 7 8 11 11 13 15 16 15 14 12 18 16
12 16 13 7 9 8 9 9 5 4 10 5 14 25 12 17 11 6 9 4 6 6 8 10 15 18 15 11 11 6 6 6 8 9 11 11 14 16 18 16 11 12 14 13
14 1 9 9 9 8 2 9 5 5 4 4 3 17 10 6 4 7 8 14 13 12 15 11 13 20 20 12 9 8 6 8 10 11 13 13 16 19 18 18 17 9 13 12
7 7 6 7 9 6 4 6 3 2 1 4 2 1 4 9 8 9 6 7 12 13 14 17 15 19 18 11 9 9 7 10 14 14 14 16 18 20 18 19 18 15 13 14
2 2 5 7 6 8 2 5 2 1 2 1 1 8 12 8 9 7 8 6 8 13 13 15 17 22 22 16 8 6 10 12 16 15 16 18 20 21 20 18 16 15 12 11
7 3 3 12 2 3 4 8 6 1 2 1 4 2 6 16 9 8 8 10 17 19 13 14 13 14 17 20 17 12 17 17 17 18 18 19 21 21 22 21 17 15 13 13
10 12 13 8 10 11 5 11 6 7 3 5 1 3 12 10 8 6 6 13 16 12 8 12 15 10 8 12 14 20 17 18 18 19 17 20 22 23 23 22 18 18 15 13
11 10 12 5 13 11 15 13 12 3 1 4 2 2 9 6 6 3 10 9 4 4 7 16 16 11 9 18 16 9 16 18 19 19 18 19 22 24 24 22 20 19 18 16
7 6 5 3 12 2 9 9 7 5 1 5 3 4 4 4 10 11 12 8 8 4 14 15 15 8 5 12 13 11 13 21 20 20 21 22 22 24 25 24 23 23 21 21
6 4 4 4 4 7 10 10 8 7 4 3 5 5 5 8 15 18 15 9 6 10 9 10 11 9 3 12 14 14 21 25 31 32 32 27 26 25 24 25 26 26 25 24
3 2 2 3 6 10 15 17 10 10 12 12 12 10 14 13 10 18 17 11 6 8 10 9 10 6 2 3 9 13 16 21 22 29 26 27 33 33 28 28 29 30 29 27
5 7 8 11 12 15 18 20 18 13 7 7 5 6 5 8 6 14 15 12 8 7 8 8 6 6 6 14 13 15 19 21 26 29 29 36 43 46 37 42 39 38 35 32
15 14 14 17 15 14 15 3 13 12 10 8 7 5 4 1 3 10 15 13 13 15 15 14 16 16 17 16 19 19 19 22 25 24 31 38 41 42 56 39 46 49 44 37
26 23 20 17 13 3 10 12 9 4 4 8 8 10 8 6 8 13 14 15 16 18 19 21 22 23 24 22 16 10 24 16 23 24 26 34 39 40 44 53 41 42 47 38
22 30 24 15 17 15 15 11 4 6 10 10 6 10 8 4 4 4 7 12 16 17 18 19 20 21 22 19 21 21 19 25 26 21 29 32 35 41 40 43 44 24 35 16
8 18 20 13 6 7 13 6 4 9 10 9 9 7 6 6 8 11 12 14 17 19 21 22 24 25 25 24 24 25 25 23 23 24 19 25 28 30 30 26 20 12 12 18
13 8 23 28 17 18 14 12 14 14 15 15 14 13 12 12 13 15 16 20 23 26 31 31 31 31 32 32 32 27 24 21 19 22 24 26 26 30 27 22 23 26 27 26
16 10 12 16 18 15 16 13 18 19 17 18 18 18 18 19 20 22 25 25 26 28 29 34 30 28 26 27 30 30 30 32 30 27 27 25 26 27 29 24 23 25 28 30
15 15 15 16 17 21 19 17 16 15 14 15 16 17 20 22 24 25 25 28 30 32 31 26 26 25 26 26 27 32 33 34 34 30 26 28 28 29 27 25 22 22 24 30
22 16 11 12 13 12 12 13 12 14 15 16 17 19 21 24 24 26 28 32 33 28 28 26 24 24 22 24 28 32 33 35 37 37 35 33 34 33 36 34 32 28 28 28
21 21 17 12 9 13 12 12 12 13 14 16 20 23 24 24 26 29 29 28 27 28 25 25 27 28 31 32 30 32 33 36 37 39 39 39 40 38 40 43 45 43 40 39
32 29 25 22 16 14 14 14 14 17 18 20 23 25 25 26 28 27 28 28 25 24 26 29 32 35 36 36 37 37 38 39 41 42 42 43 44 42 45 48 52 55 52 48
Wind_Direction
242 249 251 267 289 304 290 289 282 270 252 227 252 252 294 319 223 322 234 235 235 128 176 205 197 198 203 193 177 176 183 184 201 224 227 233 240 227 240 245 248 255 225 216
224 247 236 319 313 305 276 307 316 267 172 209 263 225 219 255 260 275 286 232 216 209 203 190 200 208 209 216 196 182 174 183 195 237 241 242 250 247 246 256 251 240 229 229
242 227 308 324 273 238 31 356 331 22 192 218 260 243 231 233 261 261 234 247 236 238 247 233 199 190 196 201 199 185 187 191 202 232 256 251 255 259 261 270 262 248 238 229
277 298 335 347 332 326 300 330 320 219 205 213 210 250 261 233 244 251 240 230 232 232 237 245 244 219 181 101 189 177 178 184 220 245 269 280 269 264 255 247 249 235 236 234
276 295 300 296 288 327 298 314 300 266 235 231 206 256 268 219 215 228 224 226 183 237 258 250 254 250 232 222 236 237 191 212 228 246 269 280 270 259 253 248 239 247 224 232
294 293 283 276 296 308 332 341 325 349 218 224 232 212 287 242 254 235 202 221 275 286 267 262 253 252 248 244 226 223 231 227 241 256 255 270 271 258 248 243 239 225 236 227
20 107 221 246 274 303 344 17 19 3 17 232 171 201 259 229 222 205 212 236 254 266 279 273 259 248 243 263 248 230 226 233 246 256 251 256 252 248 239 229 222 229 221 217
349 29 355 295 297 306 39 26 72 206 243 276 170 288 112 129 166 200 207 237 265 283 284 269 270 259 257 270 272 248 237 223 224 232 242 246 242 239 234 226 221 221 225 212
308 305 43 19 269 296 303 6 59 88 48 79 337 101 144 148 126 166 201 235 309 343 319 274 265 259 248 247 253 239 234 224 227 232 239 238 236 233 225 225 219 221 222 209
28 342 325 19 116 327 228 339 322 344 81 351 1 98 173 186 182 192 228 282 299 315 323 326 305 286 252 239 241 252 243 238 227 230 240 242 238 234 224 225 219 226 222 209
347 323 309 342 40 62 68 55 36 69 66 146 124 242 186 170 177 215 295 323 306 321 352 4 7 321 253 242 244 232 218 230 218 227 240 247 240 233 226 226 225 225 229 223
348 318 280 280 118 81 57 52 50 53 153 99 148 250 171 184 233 300 316 334 300 313 351 355 352 343 195 226 332 201 208 231 228 227 238 252 253 243 237 234 232 234 234 232
359 315 304 194 194 244 3 18 21 20 138 87 102 174 146 280 268 269 282 287 298 352 358 355 357 13 284 289 300 206 264 245 231 229 231 241 248 251 251 245 240 237 238 241
25 22 69 51 6 339 340 348 349 348 316 252 282 215 244 271 248 252 266 272 286 333 1 349 1 45 337 298 299 270 260 259 244 233 239 239 241 252 255 256 255 249 245 243
143 154 229 323 338 330 318 313 314 313 317 295 288 278 285 274 263 237 247 233 258 323 315 336 359 36 336 277 265 284 278 282 271 261 247 235 244 249 252 251 248 248 247 244
242 253 265 265 278 294 305 298 285 289 348 320 227 250 225 229 253 236 225 221 249 268 263 288 289 267 323 322 280 273 271 279 269 269 255 240 252 252 245 245 243 238 238 242
265 268 277 281 282 291 297 330 317 307 290 235 219 194 170 191 243 209 201 218 236 241 251 258 273 275 292 315 319 270 285 286 283 268 263 266 270 273 266 277 240 245 233 224
267 264 272 282 281 279 275 314 322 282 159 203 222 167 175 210 190 201 218 239 242 239 247 258 274 282 293 305 301 312 281 267 286 274 277 282 277 279 287 284 290 308 228 241
265 258 257 254 253 265 271 295 285 208 153 154 190 174 177 197 182 257 261 255 262 262 269 279 289 295 297 296 293 292 279 292 295 274 298 291 295 288 290 300 309 304 209 240
285 238 233 229 221 217 261 244 235 244 190 204 212 228 251 276 284 299 298 302 307 310 311 311 307 304 299 293 286 285 280 275 271 291 275 295 282 279 285 298 316 227 250 275
268 316 228 235 242 249 244 256 258 246 262 251 253 261 271 287 301 314 315 310 307 309 310 308 304 299 297 296 295 292 286 288 282 273 273 281 283 275 281 285 277 260 263 266
265 282 273 256 237 246 256 251 245 272 269 284 284 280 280 292 303 306 304 302 303 304 305 306 299 294 291 290 290 287 286 284 282 276 266 263 269 275 278 268 264 267 262 252
261 261 263 255 254 263 260 253 255 259 263 271 275 283 292 296 300 303 305 306 307 310 311 306 301 296 294 289 283 279 279 278 278 279 274 273 256 262 266 262 258 258 252 243
258 247 244 252 242 242 244 246 253 270 278 281 283 284 289 296 304 311 312 313 312 314 310 304 299 297 290 281 282 283 281 280 278 276 274 268 262 261 258 246 241 239 238 235
242 236 246 245 223 215 229 241 252 260 258 269 282 291 300 307 309 309 313 316 314 309 306 303 300 298 297 297 293 288 284 280 277 275 269 261 254 250 250 253 242 241 243 244
242 247 250 255 252 240 249 261 264 269 278 286 291 297 298 301 309 315 318 316 307 303 303 303 302 302 303 304 302 298 296 291 288 283 277 274 270 260 250 245 249 252 247 236
Height
3172 3171 3169 3171 3171 3169 3165 3166 3165 3168 3167 3165 3164 3162 3162 3160 3159 3160 3162 3163 3165 3169 3172 3174 3176 3178 3180 3180 3181 3186 3189 3191 3191 3194 3196 3197 3199 3200 3202 3203 3202 3202 3202 3202
3171 3167 3169 3167 3166 3165 3163 3164 3162 3164 3164 3165 3164 3162 3163 3158 3159 3160 3163 3163 3166 3170 3170 3172 3174 3176 3177 3180 3183 3184 3186 3189 3191 3193 3194 3196 3196 3197 3199 3200 3200 3200 3200 3200
3168 3167 3167 3166 3165 3164 3163 3162 3162 3162 3161 3162 3162 3161 3157 3159 3157 3159 3161 3163 3165 3168 3170 3172 3172 3174 3178 3178 3180 3183 3185 3187 3189 3191 3192 3193 3193 3194 3196 3197 3197 3198 3199 3200
3166 3165 3164 3164 3164 3164 3162 3162 3160 3160 3161 3161 3161 3157 3154 3157 3157 3157 3159 3162 3163 3165 3168 3169 3172 3172 3174 3179 3179 3181 3183 3184 3187 3188 3190 3190 3191 3191 3193 3193 3194 3195 3196 3197
3165 3163 3164 3163 3162 3162 3161 3160 3157 3156 3158 3159 3160 3161 3152 3153 3155 3156 3158 3159 3162 3165 3166 3169 3169 3171 3172 3176 3177 3180 3181 3183 3184 3185 3187 3187 3188 3189 3189 3190 3191 3191 3192 3192
3163 3161 3161 3160 3160 3160 3159 3157 3154 3152 3152 3155 3154 3158 3151 3151 3155 3157 3161 3162 3162 3163 3164 3165 3168 3169 3169 3172 3174 3176 3178 3180 3181 3182 3184 3184 3185 3186 3187 3187 3188 3188 3188 3189
3159 3158 3158 3159 3159 3159 3157 3155 3154 3155 3155 3156 3154 3159 3154 3154 3156 3157 3159 3161 3162 3162 3161 3162 3164 3165 3168 3170 3172 3175 3175 3176 3178 3179 3181 3181 3182 3182 3183 3184 3185 3186 3185 3186
3161 3161 3159 3159 3159 3159 3157 3156 3155 3159 3161 3155 3155 3154 3154 3155 3155 3156 3157 3158 3160 3161 3161 3159 3160 3162 3165 3168 3168 3170 3172 3172 3174 3176 3177 3178 3179 3180 3180 3181 3181 3182 3182 3182
3161 3161 3160 3158 3157 3158 3157 3156 3156 3155 3155 3156 3156 3156 3157 3157 3157 3158 3159 3160 3160 3158 3157 3156 3155 3155 3159 3163 3164 3165 3167 3169 3172 3173 3173 3175 3177 3177 3177 3179 3179 3179 3180 3179
3161 3160 3159 3158 3157 3156 3156 3157 3155 3154 3158 3159 3156 3156 3156 3157 3158 3160 3160 3160 3159 3157 3155 3154 3152 3153 3154 3159 3162 3166 3165 3167 3169 3171 3171 3173 3174 3176 3176 3176 3177 3178 3179 3178
3160 3160 3159 3159 3158 3155 3156 3155 3155 3155 3156 3158 3163 3158 3156 3157 3159 3160 3160 3159 3158 3156 3155 3153 3151 3150 3152 3157 3160 3161 3159 3163 3166 3168 3170 3172 3173 3175 3175 3175 3176 3176 3177 3177
3157 3156 3155 3157 3156 3156 3156 3156 3155 3155 3158 3157 3157 3157 3156 3158 3159 3160 3159 3157 3156 3155 3154 3153 3152 3150 3153 3154 3154 3150 3154 3160 3164 3166 3168 3170 3172 3173 3173 3173 3174 3175 3175 3175
3156 3154 3153 3153 3156 3155 3155 3155 3155 3155 3156 3156 3157 3158 3157 3157 3157 3157 3156 3156 3155 3155 3154 3153 3151 3150 3154 3156 3153 3152 3152 3157 3161 3162 3163 3163 3165 3165 3168 3170 3172 3173 3174 3173
3155 3154 3154 3155 3155 3155 3154 3154 3154 3155 3155 3155 3155 3156 3156 3155 3154 3153 3153 3154 3155 3155 3154 3154 3152 3150 3151 3151 3149 3148 3149 3150 3145 3156 3156 3158 3159 3162 3164 3166 3167 3167 3169 3170
3154 3154 3154 3154 3154 3153 3152 3151 3152 3152 3152 3151 3151 3151 3151 3150 3149 3149 3151 3153 3153 3154 3154 3153 3152 3151 3150 3149 3147 3146 3145 3143 3144 3136 3145 3149 3156 3161 3163 3161 3159 3160 3161 3164
3152 3152 3152 3152 3151 3150 3148 3148 3148 3148 3148 3146 3146 3147 3146 3146 3146 3147 3149 3151 3152 3151 3151 3151 3151 3150 3149 3148 3147 3147 3145 3143 3140 3137 3137 3142 3140 3137 3138 3146 3150 3150 3147 3152
3149 3149 3149 3147 3148 3146 3146 3144 3143 3143 3143 3145 3145 3145 3144 3144 3146 3146 3147 3148 3149 3149 3149 3149 3149 3149 3148 3146 3144 3142 3143 3141 3139 3136 3136 3134 3135 3133 3121 3126 3128 3132 3136 3134
3144 3144 3145 3143 3144 3144 3141 3140 3138 3139 3140 3142 3143 3143 3143 3144 3145 3145 3144 3145 3145 3145 3145 3145 3144 3144 3143 3142 3141 3139 3140 3134 3136 3134 3131 3129 3127 3126 3123 3111 3109 3101 3116 3108
3135 3137 3138 3139 3140 3139 3139 3138 3138 3138 3141 3141 3143 3143 3143 3142 3145 3145 3144 3143 3141 3142 3143 3143 3141 3139 3138 3137 3136 3135 3135 3134 3131 3128 3126 3122 3119 3117 3117 3120 3105 3110 3106 3114
3130 3130 3134 3133 3134 3134 3134 3135 3136 3136 3137 3140 3141 3142 3143 3143 3142 3143 3142 3139 3137 3136 3136 3136 3135 3133 3132 3131 3130 3129 3128 3127 3126 3121 3119 3118 3119 3116 3117 3115 3112 3110 3108 3111
3127 3125 3126 3128 3129 3130 3131 3132 3133 3134 3136 3135 3137 3138 3139 3140 3141 3138 3137 3136 3135 3132 3128 3128 3127 3125 3123 3120 3119 3119 3118 3117 3114 3112 3111 3111 3111 3109 3106 3105 3105 3106 3108 3110
3124 3125 3124 3125 3125 3124 3126 3128 3130 3130 3129 3131 3133 3135 3135 3136 3136 3135 3132 3131 3130 3128 3125 3122 3120 3118 3115 3113 3110 3108 3107 3105 3105 3105 3105 3103 3101 3100 3100 3101 3102 3101 3102 3103
3121 3121 3121 3121 3120 3120 3121 3123 3125 3126 3128 3129 3130 3131 3132 3131 3131 3131 3129 3125 3122 3120 3116 3113 3110 3109 3108 3105 3103 3099 3096 3095 3094 3094 3097 3096 3095 3093 3092 3093 3095 3097 3099 3101
3116 3116 3115 3116 3115 3116 3117 3119 3120 3122 3124 3125 3126 3127 3127 3127 3126 3125 3123 3120 3114 3110 3108 3105 3103 3101 3100 3099 3096 3092 3089 3087 3085 3083 3084 3084 3085 3085 3085 3085 3087 3090 3093 3094
3111 3112 3112 3112 3112 3113 3114 3116 3118 3119 3120 3120 3121 3121 3121 3121 3121 3118 3116 3113 3110 3105 3101 3098 3095 3093 3090 3088 3086 3083 3079 3076 3073 3070 3069 3069 3070 3071 3073 3072 3073 3074 3078 3081
3101 3104 3107 3108 3109 3110 3111 3113 3114 3114 3115 3115 3114 3113 3114 3114 3113 3111 3108 3106 3103 3100 3096 3092 3087 3082 3078 3075 3072 3069 3066 3062 3058 3055 3055 3053 3053 3056 3058 3058 3061 3062 3062 3064